This demonstration page uses our WeatherBlox Daily Observations layout. Learn more.

Left ArrowRight Arrow

39.51506, -84.39828

Hourly Observations for July 16, 2021

Temp ( °F °C ) Dew Point ( °F °C ) Humidity (%) Winds ( mph kmh ) Pressure ( in mb ) Visibility ( mi km ) Precip ( " mm )
12:15 am 00:15 Cloudy 74 23.5 73 22.5 94 94 N N/A 30.04 1017 10 16 N/A
12:35 am 00:35 Partly Cloudy with Thunderstorms 75 23.8 71 21.4 86 86 N N/A 30.03 1017 10 16 N/A
12:55 am 00:55 Mostly Cloudy with Nearby Thunderstorms 73 22.8 73 22.6 99 99 N N/A 30.03 1017 10 16 N/A
1:15 am 01:15 Mostly Cloudy 74 23.1 71 21.5 91 91 SSE 7 11 30.04 1017 10 16 N/A
1:35 am 01:35 Clear with Thunderstorms 74 23.3 71 21.5 90 90 SSE 6 9 30.03 1017 10 16 N/A
1:55 am 01:55 Partly Cloudy 74 23.1 71 21.6 91 91 SE 3 6 30.03 1017 10 16 N/A
2:15 am 02:15 Cloudy with Thunderstorms 73 22.6 71 21.8 95 95 NNW 7 11 30.03 1017 10 16 N/A
2:35 am 02:35 Mostly Cloudy 73 22.5 72 22.1 98 98 NNE 3 6 30.03 1017 10 16 N/A
2:55 am 02:55 Cloudy 72 22.2 72 22 99 99 ENE 3 6 30.02 1017 10 16 N/A
3:15 am 03:15 Cloudy 72 22.3 72 22 98 98 ENE 5 7 30.02 1017 10 16 N/A
3:35 am 03:35 Partly Cloudy 72 22.1 72 22 99 99 E 5 7 30.02 1017 10 16 N/A
3:55 am 03:55 Clear 72 22 N/A N/A ENE 3 6 30.01 1016 10 16 N/A
4:15 am 04:15 Partly Cloudy 70 21 N/A N/A N N/A 30.01 1016 10 16 N/A
4:35 am 04:35 Partly Cloudy 70 21 N/A N/A N N/A 30.01 1016 10 16 N/A
4:55 am 04:55 Clear 70 21 N/A N/A N N/A 30.01 1016 10 16 N/A
5:15 am 05:15 Clear 70 21 N/A N/A N N/A 30.01 1016 10 16 N/A
5:35 am 05:35 Cloudy with Nearby Thunderstorms 70 21 N/A N/A NW 3 6 30.02 1017 7 11 N/A
5:55 am 05:55 Cloudy with Heavy Rain 70 21 N/A N/A N N/A 30.03 1017 2 3 N/A
6:15 am 06:15 Clear 70 21 N/A N/A ESE 3 6 30.02 1017 10 16 N/A
6:35 am 06:35 Hazy 70 21 N/A N/A SSE 3 6 30.02 1017 7 11 N/A
6:55 am 06:55 Partly Cloudy 70 21 N/A N/A N N/A 30.03 1017 7 11 0.01 0.25
7:15 am 07:15 Hazy 70 21 N/A N/A N N/A 30.02 1017 5 8 N/A
7:35 am 07:35 Hazy 72 22 N/A N/A SSE 5 7 30.03 1017 5 8 N/A
7:55 am 07:55 Cloudy with Rain 72 22 N/A N/A SSW 3 6 30.04 1017 5 8 N/A
8:15 am 08:15 Cloudy with Light Rain 72 22 N/A N/A N N/A 30.04 1017 5 8 N/A
8:35 am 08:35 Hazy 72 22 N/A N/A SSE 3 6 30.03 1017 5 8 N/A
8:55 am 08:55 Hazy 73 23 N/A N/A S 5 7 30.03 1017 7 11 0.01 0.25
9:15 am 09:15 Sunny 75 24 N/A N/A S 7 11 30.03 1017 7 11 N/A
9:35 am 09:35 Partly Cloudy 76 24.2 75 24 99 99 SSW 7 11 30.02 1017 7 11 N/A
9:55 am 09:55 Partly Cloudy 78 25.6 75 24 91 91 SSW 10 17 30.02 1017 10 16 N/A
10:15 am 10:15 Mostly Cloudy 79 26.1 75 23.9 88 88 SSW 10 17 30.03 1017 10 16 0.01 0.25
10:35 am 10:35 Sunny 79 25.9 74 23.5 87 87 SW 9 15 30.03 1017 10 16 0.01 0.25
10:55 am 10:55 Mostly Cloudy 80 26.6 73 23 81 81 SW 10 17 30.03 1017 10 16 0.01 0.25
11:15 am 11:15 Sunny 80 26.7 73 22.9 80 80 SW 9 15 30.03 1017 10 16 N/A
11:35 am 11:35 Sunny 82 27.5 74 23.1 77 77 WSW 10 17 30.03 1017 10 16 N/A
11:55 am 11:55 Sunny 83 28.3 73 22.7 72 72 SW 12 19 30.03 1017 10 16 0.01 0.25
12:15 pm 12:15 Sunny 83 28.5 73 22.7 71 71 WSW 15 24 30.03 1017 10 16 N/A
12:35 pm 12:35 Sunny 84 29.1 74 23.3 71 71 SW 9 15 30.02 1017 10 16 N/A
12:55 pm 12:55 Partly Cloudy 85 29.3 74 23.6 71 71 SW 12 19 30.01 1016 10 16 0.01 0.25
1:15 pm 13:15 Partly Cloudy 84 29.1 74 23.2 71 71 SW 10 17 29.99 1016 10 16 N/A
1:35 pm 13:35 Partly Cloudy 85 29.4 73 22.8 68 68 SW 10 17 29.98 1015 10 16 N/A
1:55 pm 13:55 Sunny with Thunderstorms 85 29.2 72 22.3 66 66 W 9 15 29.99 1016 10 16 0.01 0.25
2:15 pm 14:15 Mostly Cloudy with Thunderstorms 75 24.1 72 22 88 88 NNW 20 31 30.02 1016 10 16 N/A
2:35 pm 14:35 Cloudy with Strong Thunderstorms 70 21 70 21 100 100 S 5 7 30.05 1018 4 6 N/A
2:55 pm 14:55 Cloudy with Thunderstorms 72 22 72 22 100 100 W 7 11 30.01 1016 7 11 0.01 0.25
3:15 pm 15:15 Cloudy with Light Rain 72 22 N/A N/A SW 5 7 30.02 1017 7 11 N/A
3:35 pm 15:35 Sunny 72 22.3 72 22 98 98 SSW 7 11 30.01 1016 10 16 N/A
3:55 pm 15:55 Sunny 73 22.6 72 22.3 98 98 S 8 13 30.01 1016 10 16 N/A
4:15 pm 16:15 Sunny 73 22.6 72 22.1 97 97 SSW 8 13 30.01 1016 10 16 N/A
4:35 pm 16:35 Sunny 74 23.2 73 22.6 96 96 SSW 6 9 30.00 1016 10 16 0.01 0.25
4:55 pm 16:55 Sunny 75 24 72 22.2 90 90 S 6 9 29.98 1015 10 16 0.01 0.25
5:15 pm 17:15 Sunny 77 25.1 73 22.5 86 86 S 8 13 29.97 1015 10 16 0.01 0.25
5:35 pm 17:35 Sunny 79 26 74 23.3 85 85 SE 6 9 29.97 1015 10 16 0.02 0.51
5:55 pm 17:55 Sunny 79 26 73 22.6 82 82 S 8 13 29.97 1015 10 16 0.03 0.76
6:15 pm 18:15 Sunny 78 25.8 73 22.9 84 84 S 7 11 29.96 1015 10 16 0.01 0.25
6:35 pm 18:35 Sunny 78 25.8 72 22.3 81 81 S 6 9 29.96 1015 10 16 0.02 0.51
6:55 pm 18:55 Sunny 79 26 73 22.6 82 82 SSW 6 9 29.96 1015 10 16 0.02 0.51
7:15 pm 19:15 Sunny with Nearby Thunderstorms 78 25.6 74 23.2 87 87 SSW 6 9 29.96 1015 10 16 0.01 0.25
7:35 pm 19:35 Partly Cloudy with Nearby Thunderstorms 78 25.4 73 23 87 87 SE 8 13 29.96 1015 10 16 0.02 0.51
7:55 pm 19:55 Cloudy with Mist and Fog 76 24.3 73 22.8 91 91 SSE 7 11 29.97 1015 4 6 0.03 0.76
8:15 pm 20:15 Cloudy with Thunderstorms 73 23 73 23 100 100 W 10 17 29.99 1015 5 8 N/A
8:35 pm 20:35 Mostly Cloudy with Thunderstorms 72 22 71 21.7 98 98 N 7 11 29.98 1015 10 16 0.01 0.25
8:55 pm 20:55 Cloudy with Nearby Thunderstorms 70 21 N/A N/A ENE 8 13 29.98 1015 10 16 0.02 0.51
9:15 pm 21:15 Cloudy 70 21 N/A N/A ENE 8 13 29.97 1015 10 16 N/A
9:35 pm 21:35 Mostly Cloudy with Thunderstorms 70 21 N/A N/A NW 7 11 29.99 1016 7 11 0.01 0.25
9:55 pm 21:55 Cloudy with Strong Thunderstorms 70 21 N/A N/A W 5 7 30.00 1016 5 8 0.01 0.25
10:15 pm 22:15 Cloudy with Thunderstorms 70 21 N/A N/A N N/A 29.99 1016 4 6 0.01 0.25
10:35 pm 22:35 Partly Cloudy 70 21 N/A N/A N N/A 29.99 1016 10 16 0.01 0.25
10:55 pm 22:55 Mostly Cloudy with Nearby Thunderstorms 70 21 N/A N/A N N/A 29.99 1016 10 16 0.02 0.51
11:15 pm 23:15 Partly Cloudy 70 21 N/A N/A N N/A 29.99 1016 10 16 N/A
11:35 pm 23:35 Mostly Cloudy with Nearby Thunderstorms 70 21 N/A N/A N N/A 29.99 1016 10 16 0.01 0.25
11:55 pm 23:55 Cloudy with Thunderstorms 70 21 N/A N/A WSW 8 13 30.01 1016 4 6 0.02 0.51

Powered by AerisWeather